Вернуться в каталог

CZ-6A DEB

АктивенSSO
NORAD 54555·DEBRIS·🇨🇳 China

Запущен Nov 11, 2022 с Taiyuan Satellite Launch Center

Loading…

Ближайшие Пролёты (ближайшие 24 часа)

TLE

СвежийSource: Space-Track

Эпоха: Sep 14, 2026, 12:47 UTC

1 54555U 22151LF  26257.53312967  .00000331  00000-0  15197-3 0  9996
2 54555  98.7194 284.0657 0043415  92.5294 268.0858 14.27287688199643

Отслеживайте CZ-6A DEB в реальном времени с AllMySat

Download on the App Store